Tracking 18844 objects as of 21-Nov-2017
HD Live streaming from Space Station
objects crossing your sky now

COSMOS 2287 (GLONASS)

Track COSMOS 2287 (GLONASS) now!
COSMOS 2287 (GLONASS) is classified as:


NORAD ID: 23203
Int'l Code: 1994-050A
Perigee: 19,117.2 km
Apogee: 19,157.0 km
Inclination: 66.2 °
Period: 675.7 minutes
Semi major axis: 25508 km
RCS: 3.2588 m2 (large)
Launch date: August 11, 1994
Source: Commonwealth of Independent States (former USSR) (CIS)
Launch site: TYURATAM MISSILE AND SPACE COMPLEX (TTMTR)
SV:
aabbcc
Your satellite tracking list
Your tracking list is empty




NASA's NSSDC Master Catalog

Two Line Element Set (TLE):
1 23203U 94050A   17325.23806187 -.00000021  00000-0  00000+0 0  9994
2 23203  66.1941 304.6963 0007816  54.4963  18.8196  2.13101084181196
Source of the keplerian elements: AFSPC